This is the latest recevied weather packets stored in our database for station/object KC3VCX. If no packets are shown the sender has not sent any weather packets the latest 10 day(s).
| Time | Temp. | Humidity | Pressure | Rain* | Wind** | Luminosity | Snow |
|---|---|---|---|---|---|---|---|
| 1777966167 | 15° C | 76% | 1010.4 hPa | 1.27 mm | - | 0 W/m² | - |
| 1777965863 | 15.56° C | 73% | 1010.4 hPa | 4.32 mm | - | 0 W/m² | - |
| 1777965560 | 16.67° C | 68% | 1010.2 hPa | 3.05 mm | - | 0 W/m² | - |
| 1777965256 | 16.67° C | 63% | 1009.8 hPa | 0 mm | - | 0 W/m² | - |
| 1777964954 | 16.67° C | 63% | 1009.6 hPa | 0 mm | - | 0 W/m² | - |
| 1777964650 | 16.67° C | 63% | 1009.6 hPa | 0 mm | - | 0 W/m² | - |
| 1777964346 | 16.67° C | 63% | 1009.1 hPa | 0 mm | - | 0 W/m² | - |
| 1777964043 | 16.67° C | 63% | 1009.2 hPa | 0 mm | - | 0 W/m² | - |
| 1777963740 | 16.67° C | 63% | 1009.1 hPa | 0 mm | - | 0 W/m² | - |
| 1777963437 | 16.11° C | 63% | 1009.3 hPa | 0 mm | - | 0 W/m² | - |
| 1777963135 | 16.11° C | 64% | 1009.5 hPa | 0 mm | - | 0 W/m² | - |
| 1777962830 | 16.11° C | 64% | 1009.2 hPa | 0 mm | - | 0 W/m² | - |
| 1777962527 | 16.67° C | 64% | 1009.6 hPa | 0 mm | - | 0 W/m² | - |
| 1777962224 | 16.11° C | 64% | 1009.5 hPa | 0 mm | - | 0 W/m² | - |
| 1777961921 | 16.67° C | 64% | 1009.6 hPa | 0 mm | - | 0 W/m² | - |
| 1777961619 | 16.67° C | 63% | 1009.6 hPa | 0 mm | - | 0 W/m² | - |
| 1777961317 | 16.67° C | 63% | 1009.5 hPa | 0 mm | - | 0 W/m² | - |
| 1777961013 | 16.67° C | 64% | 1009.6 hPa | 0 mm | - | 0 W/m² | - |
| 1777960709 | 16.67° C | 64% | 1009.7 hPa | 0 mm | - | 0 W/m² | - |
| 1777960405 | 16.67° C | 64% | 1009.7 hPa | 0 mm | - | 0 W/m² | - |
| 1777960103 | 16.67° C | 63% | 1009.7 hPa | 0 mm | - | 0 W/m² | - |
| 1777959800 | 16.67° C | 63% | 1009.7 hPa | 0 mm | - | 0 W/m² | - |
| 1777959498 | 16.67° C | 63% | 1009.8 hPa | 0 mm | - | 0 W/m² | - |
| 1777959195 | 17.22° C | 64% | 1010 hPa | 0 mm | - | 0 W/m² | - |
| 1777958892 | 16.67° C | 63% | 1009.9 hPa | 0 mm | - | 0 W/m² | - |
* Rain latest hour (hover to see other rain measurements)
** Current wind speed in m/s (hover to see current wind gust speed)